Angleton, TX

4:06 AM CDT on July 21, 2017 (GMT -0500)
Brazoria County

Weather History for KLBX - September, 2013

Change the Weather History Date:

Friday, September 6, 2013

  Actual Average Record
Temperature  
Mean Temperature 80 °F -  
Max Temperature 88 °F 87 °F 96 °F (2012)
Min Temperature 73 °F 71 °F 62 °F (2011)
Cooling Degree Days 15    
Growing Degree Days 30 (Base 50)    
Moisture  
Dew Point 75 °F    
Average Humidity 86    
Maximum Humidity 100    
Minimum Humidity 66    
Precipitation  
Precipitation 0.39 in - - ()
Sea Level Pressure  
Sea Level Pressure 30.03 in    
Wind  
Wind Speed 3 mph (ENE)    
Max Wind Speed 13 mph    
Max Gust Speed 21 mph    
Visibility 9 miles    
Events Rain , Thunderstorm    
Averages and records for this station are not official NWS values.
T = Trace of Precipitation, MM = Missing Value Source: NWS Daily Summary

Daily Weather History Graph

Daily Weather History Graph

Search for Another Location

Airport or City:

Trip Planner

Search our weather history database for the weather conditions in past years. The results will help you decide how hot, cold, wet, or windy it might be!

Date:

Astronomy

Sep. 06, 2013 Rise Set
Actual Time 7:02 AM CDT 7:37 PM CDT
Civil Twilight 6:38 AM CDT 8:01 PM CDT
Nautical Twilight 6:10 AM CDT 8:29 PM CDT
Astronomical Twilight 5:41 AM CDT 8:57 PM CDT
Moon 8:05 AM CDT (9/6) 8:14 PM CDT (9/6)
Length of Visible Light 13h 23m
Length of Day
12h 35m
New Moon, 2% of the Moon is Illuminated
Sep 6
New Moon
Sep 12
First Quarter
Sep 19
Full
Sep 26
Last Quarter
Oct 4
New

Hourly Weather History & Observations

Time (CDT) Temp. Heat Index Dew Point Humidity Pressure Visibility Wind Dir Wind Speed Gust Speed Precip Events Conditions
12:53 AM 75.0 °F - 73.9 °F 96% 30.04 in 10.0 mi Calm Calm - N/A   Clear
1:53 AM 75.0 °F - 73.0 °F 94% 30.03 in 10.0 mi Calm Calm - N/A   Partly Cloudy
2:53 AM 75.0 °F - 73.9 °F 96% 30.03 in 10.0 mi North 3.5 mph - N/A   Partly Cloudy
3:53 AM 73.9 °F - 72.0 °F 93% 30.02 in 10.0 mi NNE 5.8 mph - N/A   Clear
4:53 AM 73.9 °F - 73.0 °F 97% 30.01 in 10.0 mi Calm Calm - N/A   Clear
5:53 AM 73.9 °F - 73.0 °F 97% 30.02 in 10.0 mi North 3.5 mph - N/A   Clear
6:34 AM 73.4 °F - 73.4 °F 100% 30.03 in 2.0 mi North 3.5 mph - N/A   Clear
6:43 AM 73.4 °F - 73.4 °F 100% 30.03 in 4.0 mi North 3.5 mph - N/A   Clear
6:53 AM 73.9 °F - 73.0 °F 97% 30.03 in 9.0 mi North 3.5 mph - N/A   Clear
7:53 AM 75.0 °F - 73.9 °F 96% 30.04 in 10.0 mi North 3.5 mph - N/A   Clear
8:53 AM 82.0 °F 89.4 °F 75.9 °F 82% 30.06 in 10.0 mi North 6.9 mph - N/A   Clear
9:53 AM 84.0 °F 92.6 °F 75.9 °F 76% 30.06 in 10.0 mi NNE 11.5 mph - N/A   Mostly Cloudy
10:33 AM 86.0 °F 95.1 °F 75.2 °F 70% 30.06 in 10.0 mi NE 8.1 mph - N/A   Partly Cloudy
10:53 AM 87.1 °F 97.3 °F 75.9 °F 69% 30.06 in 10.0 mi ENE 6.9 mph - N/A   Scattered Clouds
11:12 AM 87.8 °F 97.6 °F 75.2 °F 66% 30.07 in 10.0 mi ENE 8.1 mph - N/A Thunderstorm Mostly Cloudy
11:31 AM 78.8 °F - 75.2 °F 89% 30.09 in 1.5 mi ENE 12.7 mph 20.7 mph 0.14 in Rain , Thunderstorm Heavy Thunderstorms and Rain
11:49 AM 77.0 °F - 75.2 °F 94% 30.07 in - Calm Calm - 0.37 in Rain , Thunderstorm Thunderstorms and Rain
11:53 AM 78.1 °F - 75.9 °F 93% 30.07 in 2.0 mi Calm Calm - 0.39 in Rain , Thunderstorm Heavy Thunderstorms and Rain
12:04 PM 78.8 °F - 77.0 °F 94% 30.06 in 10.0 mi Calm Calm - 0.00 in Thunderstorm Thunderstorm
12:23 PM 78.8 °F - 77.0 °F 94% 30.07 in 10.0 mi Calm Calm - 0.00 in   Mostly Cloudy
12:53 PM 81.0 °F 87.3 °F 75.9 °F 85% 30.05 in 10.0 mi SSE 5.8 mph - 0.00 in   Clear
1:53 PM 86.0 °F 96.9 °F 77.0 °F 74% 30.03 in 10.0 mi SE 8.1 mph - N/A   Clear
2:53 PM 86.0 °F 95.1 °F 75.0 °F 70% 30.01 in 10.0 mi ESE 6.9 mph - N/A   Partly Cloudy
3:53 PM 86.0 °F 96.0 °F 75.9 °F 72% 29.99 in 10.0 mi East 5.8 mph - 0.00 in   Partly Cloudy
4:53 PM 84.9 °F 93.3 °F 75.0 °F 72% 29.98 in 10.0 mi ESE 6.9 mph - N/A   Clear
5:53 PM 84.9 °F 93.3 °F 75.0 °F 72% 29.97 in 10.0 mi ESE 8.1 mph - N/A   Clear
6:53 PM 84.0 °F 91.2 °F 73.9 °F 72% 29.98 in 10.0 mi ESE 6.9 mph - N/A   Clear
7:53 PM 82.0 °F 88.6 °F 75.0 °F 79% 29.98 in 10.0 mi SE 4.6 mph - N/A   Clear
8:53 PM 80.1 °F 85.4 °F 75.9 °F 87% 29.98 in 10.0 mi ESE 3.5 mph - N/A   Clear
9:53 PM 79.0 °F - 75.0 °F 88% 29.98 in 10.0 mi Calm Calm - N/A   Clear
10:53 PM 75.9 °F - 75.0 °F 97% 29.97 in 10.0 mi Calm Calm - N/A   Clear
11:53 PM 75.0 °F - 73.9 °F 96% 29.98 in 10.0 mi Calm Calm - N/A   Clear